Location: Sungai Ketit
(2.6833°N, 113.2333°E)
Time: 20:02:22
(UTC+00:00)

Palapa B4 Rocket - Pass Details

Date: 23 May 2024
Orbit: 502 x 2678 km, 19.7° (Epoch: 19 June)

Event Time Altitude Azimuth Distance (km) Brightness Sun altitude
Rises 11:05:21 0° 277° (W) 2,747 8.2 -8.7°
Reaches altitude 10° 11:07:23 10° 270° (W) 1,977 6.9 -9.2°
Maximum altitude 11:11:41 45° 196° (SSW) 1,054 4.2 -10.2°
Enters shadow 11:17:18 13° 127° (SE) 2,648 5.7 -11.5°
